[[{"header":{"parameterUnit":"m.s-1","parameterCategory":1,"la1":30.2991,"la2":30.254,"lo1":-89.0895,"lo2":-89.0444,"dy":0.0017,"dx":0.0017,"nx":28,"ny":28,"refTime":"2025-01-13T09:00:00:Z","depth":0,"parameterNumber":2,"parameterNumberName":"U-component_of_WINDS"},"data":[0,0,0,0,0,0,0,0,0,0,0,0,0,0,0,0,0,0,0,0,0,0,0,0,0,0,0,0,0,0,0,0,0,0,0,0,0,0,0,0,0,0,0,0,0,0,0,0,0,0,0,0,0,0,0,0,0,0,-1.9397,-1.9398,0,-1.948,-1.9481,-1.9482,-1.9457,-1.9456,-1.9454,-1.9452,-1.9538,-1.9542,-1.9545,0,0,0,0,0,0,0,0,0,0,0,0,0,-1.9218,-1.9221,-1.9397,-1.9398,-1.9399,-1.948,-1.9481,-1.9482,-1.9458,-1.9456,-1.9453,-1.9451,-1.9536,-1.9541,-1.9546,0,0,0,0,0,0,0,0,0,0,0,0,0,-1.9298,-1.9223,-1.9397,-1.9397,-1.9397,-1.9479,-1.9481,-1.9482,-1.9458,-1.9455,-1.9453,-1.945,-1.9535,-1.9541,-1.9546,-1.9634,0,0,-1.9564,-1.9567,0,0,0,0,0,0,0,0,-1.9293,-1.9304,-1.9396,-1.9397,-1.9398,-1.9456,-1.9449,-1.9533,-1.9459,-1.9435,-1.9452,-1.9449,-1.9513,-1.952,-1.9541,-1.9638,-1.9641,-1.9565,-1.9568,-1.9571,-1.9572,0,0,0,0,0,0,0,-1.9288,-1.9301,-1.943,-1.9397,-1.9398,-1.9392,-1.9401,-1.9465,-1.9487,-1.9437,-1.9435,-1.9445,-1.9513,-1.9536,-1.9543,-1.9643,-1.9564,-1.957,-1.9573,-1.9575,-1.9815,-1.9818,0,0,0,0,0,0,-1.9281,-1.9296,-1.9427,-1.9432,-1.9338,-1.9398,-1.9407,-1.944,-1.9486,-1.9491,-1.9448,-1.9444,-1.9527,-1.9536,-1.9546,-1.9652,-1.9571,-1.9576,-1.9579,-1.9812,-1.9816,-1.9819,0,0,0,0,0,0,-1.9278,-1.9293,-1.9424,-1.9364,-1.938,-1.9404,-1.944,-1.9443,-1.9466,-1.9494,-1.9498,-1.9467,-1.9525,-1.9538,-1.9612,-1.9654,-1.9579,-1.9584,-1.9809,-1.9813,-1.9817,-1.9864,0,0,0,0,0,0,-1.9273,-1.9292,-1.9326,-1.9365,-1.9383,-1.9489,-1.9443,-1.9446,-1.9476,-1.9472,-1.9514,-1.9518,-1.9524,-1.9603,-1.9618,-1.9661,-1.9588,-1.9805,-1.9811,-1.9816,-1.9859,-1.9869,-1.9878,0,0,0,0,0,-1.9266,-1.9336,-1.9327,-1.9343,-1.9426,-1.9491,-1.9502,-1.9507,-1.9479,-1.9513,-1.9531,-1.9517,-1.9647,-1.9611,-1.9627,-1.9673,-1.9802,-1.9809,-1.9815,-1.9854,-1.9867,-1.9878,0,0,0,0,0,0,-1.9301,-1.9341,-1.9332,-1.9416,-1.945,-1.9487,-1.953,-1.952,-1.9564,-1.9558,-1.9563,-1.9573,-1.9649,-1.9668,-1.9627,-1.976,-1.9721,-1.9731,-1.9745,-1.9757,-1.9767,-1.9762,-1.9593,0,0,0,0,0,-1.9319,-1.9368,-1.94,-1.9471,-1.9489,-1.9506,-1.9535,-1.9536,-1.9572,-1.9586,-1.961,-1.9646,-1.9694,-1.9727,-1.9773,-1.9861,-1.987,-1.99,-1.991,-1.9918,-1.9927,-1.9975,-1.9989,-1.984,-1.984,-1.984,0,0,-1.9355,-1.9383,-1.9414,-1.9479,-1.9506,-1.9557,-1.9519,-1.9575,-1.9614,-1.9595,-1.9667,-1.9685,-1.9725,-1.9807,-1.9844,-1.9825,-1.997,-1.9926,-1.9932,-1.9937,-1.9983,-1.9997,-2.001,-1.9844,-1.9844,-1.9843,0,0,-1.9449,-1.9475,-1.9537,-1.9564,-1.9605,-1.9616,-1.9631,-1.9669,-1.968,-1.9752,-1.9739,-1.9785,-1.9869,-1.9898,-1.9924,-2.0027,-2.0016,-2.0042,-2.0094,-2.0141,-2.0153,-2.0163,-2.0201,-2.0215,-2.0051,-2.0051,-2.0051,0,-1.949,-1.9567,-1.957,-1.9628,-1.9657,-1.9641,-1.9705,-1.9731,-1.9785,-1.9805,-1.9783,-1.9888,-1.9914,-2.0002,-2.0027,-2.0048,-2.0066,-2.0038,-2.0151,-2.0161,-2.0171,-2.0207,-2.0221,-2.0054,-2.0053,-2.0053,-2.0053,0,-1.9615,-1.9669,-1.9714,-1.9767,-1.9801,-1.9861,-1.9873,-1.9907,-1.9904,-1.9918,-1.9991,-2.0021,-2.0074,-2.0094,-2.0093,-2.0183,-2.017,-2.0149,-2.011,-2.0188,-2.0222,-2.0236,-2.0058,-2.0057,-2.0056,-2.0055,0,0,-1.9735,-1.9788,-1.9804,-1.9828,-1.9871,-1.9913,-1.9972,-2.0023,-2.0052,-2.0089,-2.014,-2.0211,-2.0192,-2.0221,-2.0222,-2.0263,-2.0344,-2.0238,-2.0239,-2.0257,-2.0446,-2.0462,-2.0478,-2.0336,-2.0339,-2.0341,-2.0443,0,-1.9833,-1.9938,-1.9942,-2.0037,-2.0087,-2.0073,-2.0124,-2.0156,-2.017,-2.0214,-2.0229,-2.028,-2.0251,-2.0268,-2.0308,-2.0326,-2.0382,-2.0318,-2.0384,-2.0386,-2.0376,-2.0496,-2.0513,-2.0608,-2.0456,-2.0458,-2.046,0,-1.9962,-2.0004,-2.0104,-2.014,-2.0161,-2.0207,-2.0254,-2.0297,-2.0333,-2.034,-2.0372,-2.0367,-2.0428,-2.0385,-2.0469,-2.0425,-2.0452,-2.0465,-2.0468,-2.0476,-2.0429,-2.0508,-2.0639,-2.0654,-2.0481,-2.0479,-2.0478,0,-2.0041,-2.0121,-2.0192,-2.0212,-2.0256,-2.0289,-2.0309,-2.0342,-2.0372,-2.0413,-2.0433,-2.048,-2.0507,-2.0543,-2.0551,-2.0519,-2.0635,-2.0594,-2.0644,-2.0644,-2.067,-2.0669,-2.0809,-2.0685,-2.0685,-2.0684,-2.0684,0,-2.0152,-2.0214,-2.0228,-2.0272,-2.0341,-2.0344,-2.0413,-2.043,-2.0459,-2.0506,-2.0496,-2.054,-2.0547,-2.0593,-2.0599,-2.0668,-2.068,-2.0687,-2.0689,-2.0689,-2.0689,-2.0708,-2.0702,-2.0688,-2.0687,-2.0687,-2.0686,0,-2.0252,-2.0264,-2.034,-2.0375,-2.0385,-2.0434,-2.0464,-2.0506,-2.0517,-2.0577,-2.0591,-2.061,-2.0663,-2.0674,-2.0737,-2.0741,-2.0824,-2.0817,-2.0812,-2.0812,-2.0862,-2.0857,-2.102,-2.1042,-2.0903,-2.0904,-2.0905,0,-2.0323,-2.037,-2.041,-2.044,-2.0461,-2.051,-2.0541,-2.0546,-2.0578,-2.0623,-2.0659,-2.0711,-2.0753,-2.0839,-2.0858,-2.0906,-2.0902,-2.0956,-2.0909,-2.0909,-2.0904,-2.0902,-2.0907,-2.0965,-2.0967,-2.0968,-2.0969,0,-2.0447,-2.045,-2.0495,-2.0542,-2.0579,-2.0616,-2.0651,-2.0677,-2.0686,-2.0723,-2.0777,-2.081,-2.0874,-2.0926,-2.0974,-2.0994,-2.0984,-2.0983,-2.0997,-2.1,-2.0995,-2.0999,-2.0837,-2.098,-2.0979,-2.0978,-2.0977,-2.0977,-2.0535,-2.0577,-2.0611,-2.0662,-2.0688,-2.0721,-2.0763,-2.0779,-2.0824,-2.0877,-2.0877,-2.0936,-2.097,-2.1034,-2.1057,-2.1103,-2.1086,-2.1107,-2.1112,-2.1118,-2.1123,-2.0986,-2.1112,-2.1111,-2.1111,-2.1111,-2.1111,0,-2.066,-2.0681,-2.0727,-2.0777,-2.0816,-2.0802,-2.084,-2.0874,-2.0927,-2.0959,-2.1,-2.1063,-2.1113,-2.1136,-2.1185,-2.1218,-2.1214,-2.1231,-2.1229,-2.1234,-2.1135,-2.1118,-2.1233,-2.1233,-2.1233,-2.1233,-2.1233,-2.1233,-2.073,-2.08,-2.0807,-2.089,-2.0911,-2.0969,-2.0992,-2.1022,-2.1048,-2.1118,-2.116,-2.1174,-2.1203,-2.1254,-2.1299,-2.1305,-2.1324,-2.1343,-2.1346,-2.1253,-2.1241,-2.1229,-2.1214,-2.1347,-2.1347,-2.1442,-2.1443,-2.1444]},{"header":{"parameterUnit":"m.s-1","parameterCategory":1,"la1":30.2991,"la2":30.254,"lo1":-89.0895,"lo2":-89.0444,"dy":0.0017,"dx":0.0017,"nx":28,"ny":28,"refTime":"2025-01-13T09:00:00:Z","depth":0,"parameterNumber":3,"parameterNumberName":"V-component_of_WINDS"},"data":[0,0,0,0,0,0,0,0,0,0,0,0,0,0,0,0,0,0,0,0,0,0,0,0,0,0,0,0,0,0,0,0,0,0,0,0,0,0,0,0,0,0,0,0,0,0,0,0,0,0,0,0,0,0,0,0,0,0,-6.4162,-6.4163,0,-6.4247,-6.4248,-6.4248,-6.4164,-6.4161,-6.4157,-6.4154,-6.4236,-6.4241,-6.4246,0,0,0,0,0,0,0,0,0,0,0,0,0,-6.3922,-6.3927,-6.4162,-6.4163,-6.4164,-6.4246,-6.4248,-6.4249,-6.4165,-6.4161,-6.4157,-6.4153,-6.4234,-6.4241,-6.4247,0,0,0,0,0,0,0,0,0,0,0,0,0,-6.4019,-6.3929,-6.4162,-6.4132,-6.413,-6.4246,-6.4248,-6.4249,-6.4165,-6.416,-6.4155,-6.4151,-6.4232,-6.424,-6.4248,-6.4396,0,0,-6.4272,-6.4275,0,0,0,0,0,0,0,0,-6.4013,-6.4028,-6.4135,-6.4134,-6.4133,-6.419,-6.4193,-6.4298,-6.4167,-6.4152,-6.4154,-6.4148,-6.4224,-6.4233,-6.4259,-6.4399,-6.4403,-6.4273,-6.4277,-6.4281,-6.4283,0,0,0,0,0,0,0,-6.4007,-6.4023,-6.4195,-6.4137,-6.4135,-6.4113,-6.4121,-6.4213,-6.4215,-6.4153,-6.4147,-6.4158,-6.4223,-6.4252,-6.426,-6.4404,-6.4272,-6.4279,-6.4284,-6.4287,-6.467,-6.4675,0,0,0,0,0,0,-6.4004,-6.4018,-6.4192,-6.4198,-6.406,-6.4121,-6.413,-6.4176,-6.4214,-6.4215,-6.4163,-6.4154,-6.4241,-6.4251,-6.4263,-6.4439,-6.4281,-6.4288,-6.4293,-6.4665,-6.4671,-6.4677,0,0,0,0,0,0,-6.3999,-6.402,-6.4189,-6.4107,-6.4126,-6.4131,-6.4183,-6.4181,-6.421,-6.4221,-6.422,-6.4192,-6.4237,-6.4252,-6.4364,-6.4441,-6.4292,-6.4299,-6.4658,-6.4667,-6.4674,-6.4793,0,0,0,0,0,0,-6.3993,-6.4019,-6.4077,-6.4109,-6.4131,-6.429,-6.4188,-6.4186,-6.4224,-6.4214,-6.4249,-6.425,-6.4235,-6.4352,-6.4372,-6.4449,-6.4305,-6.4651,-6.4662,-6.4671,-6.4782,-6.4804,-6.4823,0,0,0,0,0,-6.3984,-6.4105,-6.408,-6.4101,-6.4203,-6.4295,-6.4307,-6.4289,-6.4231,-6.4288,-6.4295,-6.4249,-6.4429,-6.4365,-6.4385,-6.4466,-6.4646,-6.4659,-6.4671,-6.4773,-6.4799,-6.4822,0,0,0,0,0,0,-6.408,-6.4109,-6.4081,-6.4216,-6.4254,-6.428,-6.4352,-6.4318,-6.4372,-6.436,-6.4333,-6.4341,-6.446,-6.4474,-6.4401,-6.4611,-6.4528,-6.4545,-6.4598,-6.4624,-6.4644,-6.4638,-6.4311,0,0,0,0,0,-6.4118,-6.4191,-6.4211,-6.4329,-6.4349,-6.4348,-6.4387,-6.4369,-6.4407,-6.4422,-6.4437,-6.4473,-6.4538,-6.4581,-6.4642,-6.4783,-6.4789,-6.4849,-6.4869,-6.4886,-6.4901,-6.4977,-6.5004,-6.4717,-6.4717,-6.4717,0,0,-6.4195,-6.4219,-6.4267,-6.4349,-6.4376,-6.4451,-6.4362,-6.4445,-6.4501,-6.4434,-6.4541,-6.4553,-6.4592,-6.472,-6.4777,-6.4735,-6.4982,-6.4901,-6.4915,-6.4921,-6.4993,-6.502,-6.5044,-6.4725,-6.4724,-6.4723,0,0,-6.4374,-6.44,-6.4501,-6.4531,-6.4574,-6.4572,-6.4596,-6.4628,-6.4635,-6.4742,-6.4694,-6.4758,-6.487,-6.4901,-6.4931,-6.5122,-6.5081,-6.5142,-6.5249,-6.5323,-6.5346,-6.5366,-6.5435,-6.546,-6.5157,-6.5157,-6.5157,0,-6.4464,-6.4578,-6.4557,-6.4645,-6.4682,-6.4627,-6.4728,-6.4757,-6.4817,-6.4843,-6.4796,-6.4936,-6.4958,-6.5093,-6.5139,-6.5165,-6.5192,-6.5138,-6.5344,-6.5364,-6.5382,-6.5448,-6.5474,-6.5164,-6.5163,-6.5163,-6.5162,0,-6.4687,-6.4766,-6.4842,-6.4904,-6.4949,-6.5043,-6.5036,-6.5084,-6.5062,-6.5065,-6.5175,-6.52,-6.5264,-6.5294,-6.5273,-6.5426,-6.5399,-6.5349,-6.5264,-6.5417,-6.5478,-6.5503,-6.5175,-6.5172,-6.517,-6.5168,0,0,-6.4929,-6.4979,-6.5007,-6.5035,-6.5078,-6.5139,-6.5229,-6.5295,-6.5337,-6.5379,-6.5455,-6.5551,-6.5506,-6.554,-6.5521,-6.5587,-6.5738,-6.5528,-6.5529,-6.5567,-6.5907,-6.5946,-6.5975,-6.571,-6.5715,-6.5719,-6.5904,0,-6.5111,-6.5272,-6.5256,-6.5408,-6.5481,-6.5429,-6.5508,-6.5543,-6.5548,-6.5609,-6.5613,-6.5683,-6.5617,-6.5637,-6.5699,-6.5706,-6.5806,-6.5692,-6.578,-6.5783,-6.5773,-6.6007,-6.6048,-6.6222,-6.5928,-6.5932,-6.5935,0,-6.5344,-6.5398,-6.5558,-6.5591,-6.5621,-6.5693,-6.5752,-6.5811,-6.5849,-6.5848,-6.5887,-6.5857,-6.5947,-6.5861,-6.5984,-6.5908,-6.5942,-6.5951,-6.5957,-6.5965,-6.5869,-6.6022,-6.6277,-6.6303,-6.5972,-6.5969,-6.5966,0,-6.5507,-6.5618,-6.5729,-6.5754,-6.5795,-6.5847,-6.5866,-6.5899,-6.5939,-6.5989,-6.6015,-6.6075,-6.6107,-6.6153,-6.614,-6.6078,-6.6267,-6.6179,-6.6268,-6.6269,-6.6311,-6.6309,-6.6576,-6.6332,-6.6332,-6.6331,-6.6331,0,-6.5712,-6.5812,-6.5803,-6.5871,-6.5982,-6.5961,-6.607,-6.6083,-6.6112,-6.6181,-6.6138,-6.6203,-6.6182,-6.6245,-6.6235,-6.6339,-6.6354,-6.6355,-6.6351,-6.6359,-6.636,-6.6382,-6.637,-6.6338,-6.6337,-6.6335,-6.6334,0,-6.5912,-6.591,-6.6028,-6.6057,-6.6067,-6.6147,-6.6172,-6.6235,-6.6237,-6.6324,-6.6343,-6.6345,-6.6418,-6.6409,-6.6489,-6.6482,-6.6612,-6.6593,-6.66,-6.6597,-6.6687,-6.6679,-6.6978,-6.7017,-6.6747,-6.675,-6.6752,0,-6.6044,-6.612,-6.6159,-6.6203,-6.6226,-6.6297,-6.6339,-6.6321,-6.6366,-6.6414,-6.6472,-6.6541,-6.6595,-6.6713,-6.6721,-6.6782,-6.6764,-6.6865,-6.6773,-6.678,-6.6767,-6.6763,-6.6771,-6.6884,-6.6887,-6.6889,-6.6891,0,-6.6278,-6.6274,-6.6336,-6.6399,-6.6451,-6.6498,-6.6541,-6.6579,-6.6565,-6.6617,-6.6692,-6.6735,-6.6817,-6.6886,-6.6944,-6.6961,-6.6925,-6.692,-6.6944,-6.6954,-6.6956,-6.6957,-6.6651,-6.6913,-6.6911,-6.691,-6.6908,-6.6907,-6.6449,-6.6515,-6.6553,-6.6624,-6.6655,-6.6697,-6.6759,-6.6768,-6.6831,-6.6899,-6.6883,-6.6968,-6.7002,-6.7077,-6.71,-6.7165,-6.7128,-6.7162,-6.7171,-6.718,-6.7192,-6.6945,-6.7175,-6.7174,-6.7174,-6.7173,-6.7173,0,-6.6682,-6.6705,-6.677,-6.6833,-6.6889,-6.6851,-6.6897,-6.6945,-6.7021,-6.7057,-6.7112,-6.7198,-6.7265,-6.7278,-6.7341,-6.739,-6.7375,-6.7407,-6.7404,-6.7409,-6.7221,-6.7194,-6.7419,-6.7419,-6.7419,-6.7419,-6.7419,-6.7419,-6.6811,-6.692,-6.692,-6.7045,-6.7065,-6.7149,-6.7179,-6.7217,-6.7246,-6.7344,-6.74,-6.7409,-6.7436,-6.7501,-6.756,-6.7561,-6.7587,-6.7627,-6.7622,-6.7447,-6.7422,-6.7399,-6.7374,-6.7632,-6.7633,-6.7805,-6.7807,-6.7808]}]]